Location: ??????
(60.6688°N, 46.9702°E)
Time: 12:53:16
(UTC+00:00)

Daily predictions for brighter satellites

Satellite Brightness Start Highest point End
(mag) Time Altitude Azimuth Time Altitude Azimuth Time Altitude Azimuth
ATLAS 5 CENTAUR R/B 1.5 13:13:48 10° WSW 13:16:06 86° S 13:21:16 10° E
Cosmos 1709 Rocket 4.2 13:11:34 10° SSE 13:17:25 50° E 13:23:20 10° NNE
SeaSat 1 3.7 13:16:03 10° NE 13:20:19 30° NNW 13:24:34 10° W
FENGYUN 3A 4.4 13:16:05 10° S 13:21:24 61° WSW 13:26:45 10° NNW
USA 267 4.3 13:17:55 10° E 13:23:51 35° SE 13:29:44 10° SSW
COSMO-SKYMED 1 4.5 13:24:12 10° ENE 13:25:28 11° E 13:26:44 10° E
NOSS 0 Rocket 4.0 13:19:25 10° NW 13:25:41 68° NE 13:31:53 10° ESE
SL-16 R/B 3.5 13:20:24 10° NNE 13:26:18 46° NW 13:32:12 10° SW
SL-08 ROCKET BODY 4.4 13:20:27 10° S 13:26:19 74° E 13:32:11 10° NNE
Cosmos 1461 3.5 13:22:28 10° WNW 13:26:39 64° SW 13:30:59 10° SE
SL-16 R/B 2.8 13:21:23 10° NW 13:26:41 37° NNE 13:31:57 10° E
Cosmos 1606 Rocket 3.6 13:24:57 10° NNW 13:29:22 85° WSW 13:33:42 10° S
Cosmos 1340 Rocket 3.7 13:26:32 10° N 13:29:56 27° ENE 13:33:20 10° ESE
Cosmos 1908 3.2 13:26:46 10° N 13:30:40 63° ENE 13:34:30 10° SSE
Cosmos 1726 Rocket 3.5 13:27:45 10° NNW 13:32:11 86° ENE 13:36:32 10° SSE
Cosmos 1300 3.5 13:28:50 10° N 13:32:17 30° ENE 13:35:41 10° SE
Cosmos 1674 3.7 13:29:43 10° SSE 13:32:51 26° E 13:36:00 10° NNE
deb Kosmos-1763 4.4 13:29:38 10° SW 13:33:16 62° NW 13:36:53 10° NNE
Okean-O 2.9 13:32:12 10° SE 13:36:25 44° ENE 13:40:39 10° N
CSL-04 Rocket 4.3 13:32:14 10° ESE 13:37:08 34° NE 13:42:05 10° NNW
Cosmos 1953 3.4 13:33:16 10° NNW 13:37:14 50° W 13:41:10 10° S
Cosmos 1726 2.3 13:33:34 10° NNW 13:37:14 75° W 13:40:53 10° S
Cosmos 494 Rocket 4.1 13:33:48 10° NNW 13:38:51 53° NE 13:43:52 10° SE
NOSS 2-1 (C) 3.8 13:34:43 10° WNW 13:39:01 81° NNE 13:44:53 10° ESE
CZ-4B R/B 1.1 13:36:14 10° NNE 13:39:23 73° ESE 13:42:26 10° S
CZ-4C R/B 4.0 13:36:15 10° N 13:39:39 48° WNW 13:43:07 10° SW
Cosmos 2322 4.2 13:34:09 10° NW 13:39:46 66° WSW 13:45:22 10° SSE
Landsat 5 4.0 13:35:26 10° NNE 13:39:57 69° WNW 13:44:28 10° SSW
ATLAS 5 CENTAUR R/B 3.1 13:37:22 10° S 13:40:48 23° ESE 13:44:28 11° ENE
Okean O Rocket 2.4 13:36:41 10° S 13:41:05 59° WSW 13:45:30 10° NNW
NOSS 2-1 (D) 3.9 13:38:31 10° WNW 13:42:50 82° NNE 13:48:44 10° ESE
Cosmos 1818 3.7 13:38:25 10° SW 13:43:51 72° SE 13:49:03 11° ENE
Helios 1A Rocket 3.5 13:40:20 10° S 13:44:21 62° WSW 13:48:24 10° NNW
Cosmos 1536 Rocket 4.0 13:40:16 10° SSW 13:44:35 63° WNW 13:48:55 10° N
SL-08 R/B 4.2 13:40:13 10° NNE 13:44:41 47° WNW 13:49:06 10° SW
Cosmos 1025 Rocket 3.5 13:41:18 10° SSW 13:45:33 63° WNW 13:49:50 10° N
Ariane Rocket 4.1 13:42:28 10° E 13:46:23 23° NE 13:50:18 10° N
H-2A R/B 3.5 13:44:53 10° ENE 13:48:03 17° NE 13:51:17 10° N
Cosmos 1455 3.8 13:46:04 10° NNE 13:48:34 16° NE 13:51:04 10° E
Cosmos 1980 3.7 13:43:27 10° NW 13:49:09 65° NE 13:54:49 10° SE
Cosmos 2251 Rocket 4.3 13:44:51 10° NNW 13:49:32 31° NNE 13:54:13 10° E
Cosmos 1271 Rocket 4.0 13:48:55 10° SE 13:51:46 21° E 13:54:15 12° NE
Cosmos 2360 Rocket 3.9 13:48:50 10° NW 13:54:03 39° WSW 13:59:14 10° S
Cosmos 1745 Rocket 4.3 13:49:57 10° SSW 13:56:05 69° WNW 14:02:14 10° NNE
Cosmos 1939 Rocket 3.9 13:53:00 10° ESE 13:56:13 25° NE 13:59:30 10° N
CORIOLIS 4.1 13:51:21 10° SSE 13:56:45 86° ENE 14:02:09 10° NNW
Alouette 2 Rocket 3.7 13:53:41 10° NNW 13:57:41 77° ENE 14:03:17 10° SSE
H-2A R/B 3.5 13:54:41 10° N 13:58:44 37° WNW 14:02:50 10° SW
NOAA 12 4.0 13:53:56 10° SSE 13:59:10 77° ENE 14:04:27 10° NNW
ATLAS CENTAUR R/B 1.7 13:55:19 10° WNW 13:59:42 53° N 14:03:08 14° E
COSMOS 2428 3.1 13:54:32 10° NW 14:00:18 73° SW 14:06:01 10° SSE
Cosmos 1898 Rocket 3.6 13:56:32 10° SSW 14:01:47 64° ESE 14:07:03 10° NE
IRS-1C Rocket 4.3 13:57:03 10° SSE 14:02:20 80° WSW 14:07:39 10° NNW
Cosmos 2219 Rocket 2.6 13:57:02 10° NW 14:02:42 69° WSW 14:08:21 10° SSE
Cosmos 1626 3.4 14:01:51 10° SE 14:04:42 21° E 14:06:26 16° NE
Cosmos 2228 4.1 14:01:18 10° NNW 14:05:32 49° W 14:09:42 10° S
SMAP 3.3 14:01:19 10° SSE 14:05:59 75° WSW 14:10:41 10° NNW
Cosmos 2184 Rocket 4.2 14:03:35 10° SSE 14:09:30 50° E 14:15:25 10° NNE
YAOGAN 6 2.6 14:06:47 10° SSE 14:10:25 57° ENE 14:14:02 10° N
Cosmos 1242 Rocket 3.7 14:07:36 10° SE 14:10:26 23° E 14:11:50 18° ENE
SJ 16-02 1.3 14:06:02 10° SSW 14:10:28 75° ESE 14:14:40 12° NNE
Cosmos 1937 Rocket 3.6 14:06:15 10° SSW 14:11:25 59° ESE 14:16:20 12° NE
NOAA 11 4.4 14:07:32 10° SE 14:12:46 47° ENE 14:18:01 10° NNW
H-2A R/B 3.3 14:10:11 10° S 14:14:00 62° WSW 14:17:53 10° NNW
Cosmos 1689 Rocket 2.2 14:13:19 10° NNE 14:16:16 73° WNW 14:19:12 10° SSW
Cosmos 1943 4.1 14:11:46 10° NW 14:16:50 32° NNE 14:20:19 18° ENE
CZ-4 R/B 4.5 14:12:50 10° SE 14:16:53 55° ENE 14:20:57 10° N
Cosmos 2154 Rocket 4.4 14:11:39 10° SSE 14:17:25 40° E 14:23:11 10° NNE
CZ-4 R/B 1.5 14:17:02 10° SE 14:21:00 54° ENE 14:25:05 10° N
Cosmos 1833 Rocket 3.7 14:19:43 10° W 14:24:59 38° NNW 14:29:28 14° NE
COBE Rocket 4.0 14:21:08 10° NNE 14:26:14 89° ESE 14:31:25 10° SSW
COSMOS 2487 2.3 14:23:21 10° SSW 14:26:50 81° ESE 14:29:16 19° NNE
Cosmos 1892 Rocket 3.5 14:22:26 10° S 14:26:56 83° ESE 14:31:26 10° NNE
Cosmos 1812 Rocket 3.5 14:22:47 10° NNW 14:27:15 70° ENE 14:31:43 10° SSE
Cosmos 1125 Rocket 4.5 14:23:57 10° SSE 14:28:14 26° ESE 14:30:18 20° ENE
NOSS 2-1 (E) 4.2 14:24:51 10° WNW 14:29:25 78° SSW 14:35:45 10° SE
COSMOS 2406 4.3 14:24:28 10° W 14:29:35 33° NNW 14:33:34 15° NE
CZ-4C R/B 3.6 14:26:22 10° WNW 14:32:54 54° SW 14:40:33 10° SSE
NOSS 3-3 (A) 4.3 14:27:34 10° W 14:34:12 71° N 14:39:40 20° E
NOSS 3-3 (C) 4.3 14:27:40 10° W 14:34:17 71° N 14:39:46 20° E
ARGOS 4.1 14:32:40 20° E 14:35:07 28° NE 14:39:37 10° N
Cosmos 1269 Rocket 4.0 14:30:31 10° NNW 14:35:51 88° NE 14:41:10 10° SSE
SL-27 R/B 4.2 14:33:54 10° WSW 14:37:07 29° NW 14:40:02 12° NNE
Cosmos 2074 Rocket 4.0 14:34:14 10° S 14:40:31 75° E 14:46:49 10° NNE
Cosmos 839 Rocket 4.1 14:34:21 10° WSW 14:40:33 82° NNW 14:45:11 20° NE
Cosmos 2221 4.1 14:38:08 10° N 14:40:06 17° NNE 14:40:06 17° NNE
Envisat 3.5 14:36:25 10° S 14:41:28 65° WSW 14:46:34 10° NNW
Okean 1-7 Rocket 3.7 14:38:29 10° SSW 14:42:54 80° WNW 14:47:23 10° NNE
YAOGAN 1 2.5 14:39:02 10° SSE 14:43:21 69° ENE 14:47:40 10° NNW
Cosmos 2084 3.6 14:40:30 10° W 14:44:59 71° NNW 14:47:13 29° ENE
Cosmos 2082 Rocket 3.2 14:41:24 10° W 14:46:41 39° NNW 14:50:39 17° NE
CSL-04 Debris 4.1 14:41:38 10° SSE 14:47:01 76° ENE 14:52:27 10° NNW
Meteor 2-10 Rocket 3.7 14:42:23 10° NNW 14:47:49 52° ENE 14:53:00 10° SE
ADEOS Rocket 4.0 14:46:07 20° NE 14:48:29 25° E 14:53:56 10° SE
Cosmos-2242 3.1 14:44:33 10° N 14:48:51 52° ENE 14:53:05 10° SSE
Cosmos 2333 Rocket 3.7 14:43:41 10° NW 14:48:58 39° WSW 14:54:11 10° S
Cosmos 2237 Rocket 2.4 14:45:56 10° NW 14:51:35 72° SW 14:57:10 10° SSE
Nadezhda 3 Rocket 4.1 14:45:56 10° NNW 14:52:12 80° W 14:58:30 10° S
Cosmos 407 Rocket 4.4 14:49:03 10° NNW 14:53:48 31° NNE 14:55:15 27° ENE
SeaSat 1 3.9 14:54:51 18° NE 14:56:52 24° N 15:00:44 10° NW
PSLV R/B 4.1 14:52:47 10° NNE 14:56:52 70° WNW 15:00:55 10° SSW
Cosmos 372 Rocket 4.0 14:53:09 10° SSW 14:58:13 61° ESE 15:01:18 24° NE
Cosmos 1727 Rocket 4.2 14:56:29 10° N 15:02:30 48° ENE 15:08:28 10° SE
Cosmos 1602 Rocket 3.5 14:58:10 10° S 15:02:30 62° E 15:05:40 18° NNE
Meteor 1-24 Rocket 3.5 14:57:17 10° SSW 15:02:37 85° ESE 15:08:07 10° NNE
COSMO-SKYMED 1 2.7 15:00:04 22° NNE 15:02:40 53° E 15:06:56 10° S
CZ-2D R/B 3.1 14:59:22 10° SSE 15:03:11 75° ENE 15:07:04 10° NNW
Cosmos 990 Rocket 4.4 14:58:05 10° SW 15:03:19 63° NW 15:07:21 17° NNE
Cosmos 1340 Rocket 3.5 15:02:48 10° NNW 15:06:41 55° W 15:10:33 10° S
USA 267 3.5 15:03:58 26° E 15:07:45 59° SSE 15:14:11 10° WSW
Cosmos 1300 3.9 15:04:26 10° NNW 15:08:06 44° W 15:11:45 10° SSW
Cosmos 1674 3.6 15:04:36 10° SW 15:08:13 47° WNW 15:11:49 10° N
Timation 2 Rocket 4.2 15:02:42 10° SSW 15:08:37 50° ESE 15:11:40 28° ENE
Meteor 2-5 Rocket 3.9 15:03:24 10° SSW 15:08:57 74° WNW 15:14:37 10° NNE
Cosmos 1842 Rocket 4.4 15:05:36 10° N 15:08:56 31° NE 15:08:56 31° NE
CZ-4B R/B 4.0 15:09:19 10° NNW 15:11:22 16° NW 15:13:24 10° W
SL-16 R/B 2.1 15:05:48 10° NW 15:11:32 82° NE 15:15:57 18° SE
Okean-O 4.1 15:08:49 10° SSW 15:13:00 39° W 15:17:12 10° NNW
SJ-6B 4.4 15:16:27 21° NNE 15:16:27 21° NNE 15:18:05 10° N
Cosmos 2298 Rocket 3.9 15:11:21 10° SSW 15:16:40 79° ESE 15:19:42 27° NE
CSL-04 Rocket 3.9 15:11:37 10° SSE 15:17:08 76° WSW 15:22:45 10° NNW
Cosmos 2341 Rocket 4.0 15:12:58 10° S 15:19:11 59° E 15:25:26 10° NNE
Cosmos 1758 Rocket 3.9 15:15:06 10° SSE 15:18:40 42° ESE 15:18:40 42° ESE
Resurs 01 Rocket 3.4 15:22:55 18° NNE 15:22:55 18° NNE 15:24:40 10° N
Cosmos 2219 3.8 15:18:09 10° S 15:22:56 34° ESE 15:22:56 34° ESE
Cosmos 1603 3.9 15:17:41 10° NW 15:23:18 51° NE 15:24:52 40° E
SL-14 R/B 3.3 15:19:27 10° SSW 15:23:27 78° WNW 15:25:51 23° N
Cosmos 1833 4.3 15:18:32 10° SW 15:24:17 81° NW 15:27:32 27° NE
ATLAS 5 CENTAUR R/B 1.7 15:20:12 10° SW 15:24:40 71° SSE 15:26:01 47° E
Ariane Rocket 2.9 15:19:38 10° SSE 15:24:42 74° ENE 15:29:48 10° NNW
Cosmos 1455 2.0 15:21:00 10° NNW 15:24:53 80° ENE 15:26:28 34° SSE
SL-8 Rocket 4.1 15:19:27 10° SSE 15:25:31 51° E 15:31:34 10° NNE
Cosmos 1626 Rocket 3.6 15:21:29 10° SSW 15:25:49 76° WNW 15:29:18 16° N
H-2A R/B 2.1 15:25:26 42° E 15:26:30 50° ENE 15:31:27 10° NNW
SKYMED 3 4.4 15:24:10 26° NNE 15:26:34 79° ESE 15:30:55 10° SSW
Cosmos 1271 Rocket 3.1 15:23:43 10° SSW 15:27:26 62° WNW 15:29:25 26° N
Cosmos 1818 3.8 15:22:14 10° W 15:27:40 61° NNW 15:29:41 37° NE
Cosmos 1939 Rocket 3.1 15:26:58 10° S 15:30:52 66° WSW 15:34:51 10° NNW
Cosmos 2251 Rocket 3.4 15:27:14 10° NNW 15:32:33 83° NE 15:35:20 29° SE
SL-24 R/B 4.4 15:35:53 54° E 15:36:19 56° ENE 15:41:22 10° NNW
CZ-2C R/B 3.3 15:36:25 46° E 15:37:18 51° ENE 15:42:47 10° NNW
Cosmos 1607 4.0 15:31:50 10° SSW 15:37:49 57° SE 15:39:22 45° E
ATLAS CENTAUR R/B 1.3 15:34:33 10° WNW 15:38:54 80° SW 15:39:20 69° SSE
Cosmos 1626 2.6 15:36:00 10° SSW 15:39:40 59° WNW 15:41:02 34° N
Cosmos 2297 Rocket 3.3 15:35:21 10° S 15:38:35 27° SE 15:38:35 27° SE
ATLAS CENTAUR R/B 4.4 15:33:54 10° SW 15:40:44 66° SSE 15:49:50 30° E
USA 32 3.9 15:39:50 10° S 15:45:04 89° W 15:50:22 10° N
Cosmos 1242 Rocket 3.3 15:41:40 10° SW 15:45:06 50° WNW 15:45:55 40° NNW
Cosmos 1825 Rocket 4.1 15:41:11 10° S 15:44:16 43° SSE 15:44:16 43° SSE
SJ 16-02 3.0 15:45:34 10° WSW 15:49:30 30° NW 15:51:40 20° N
SL-24 R/B - RUBIN 2 4.4 15:44:31 10° WSW 15:50:17 75° NNW 15:52:17 45° NE
Cosmos 2150 Rocket 4.1 15:45:20 10° SW 15:50:30 74° NW 15:52:32 37° NNE
SKYMED 2 3.8 15:48:38 29° N 15:50:47 70° WNW 15:55:06 10° SSW
Meteor 2-17 Rocket 4.4 15:44:48 10° SSW 15:50:58 86° WNW 15:57:09 10° NNE
Cosmos 2227 Rocket 3.4 15:47:06 10° S 15:49:54 26° SSE 15:49:54 26° SSE
SPOT 3 Rocket 3.5 15:52:29 60° ENE 15:52:29 60° ENE 15:57:35 10° NNW
Cosmos 1937 Rocket 4.5 15:48:36 10° WSW 15:53:39 44° NW 15:56:31 24° NNE
Cosmos 2218 Rocket 3.9 15:47:54 10° S 15:54:08 64° E 16:00:30 10° NNE
CZ-4 R/B 3.5 15:52:46 10° SSW 15:56:19 28° W 15:59:56 10° NNW
Cosmos 1943 3.2 15:56:16 10° NW 16:01:53 62° NE 16:02:08 61° NE
Cosmos 2154 Rocket 4.5 15:56:35 10° SSW 16:02:47 60° WNW 16:08:59 10° N
Cosmos 1356 Rocket 4.3 16:00:34 10° NNW 16:03:09 39° NNW 16:03:09 39° NNW
Meteor 2-2 Rocket 4.3 15:58:35 10° NNW 16:04:36 66° ENE 16:05:15 62° ESE
Cosmos 864 Rocket 4.3 15:59:21 10° S 16:05:25 68° E 16:11:32 10° NNE
Cosmos 1125 Rocket 3.4 16:04:36 10° SW 16:09:50 82° NW 16:10:37 65° NNE
Cosmos 1833 Rocket 3.9 16:05:24 10° WNW 16:10:20 29° N 16:11:10 28° NNE
Cosmos 2123 Rocket 4.2 16:05:03 10° N 16:10:36 50° NE 16:10:36 50° NE
Cosmos 614 Rocket 4.2 16:08:58 10° NNW 16:13:26 59° N 16:13:26 59° N
ARGOS 3.0 16:14:10 69° SSE 16:14:52 88° ENE 16:20:19 10° NNW
COSMOS 2406 4.3 16:10:22 10° NW 16:15:24 31° N 16:15:38 31° NNE
Cosmos 2221 4.2 16:15:10 10° NNW 16:16:59 25° NNW 16:16:59 25° NNW
Cosmos 1140 Rocket 4.1 16:16:53 10° NNW 16:20:57 46° N 16:20:57 46° N
Cosmos 1959 Rocket 4.3 16:17:37 10° S 16:23:48 88° ESE 16:29:59 10° NNE
Cosmos 2084 4.3 16:20:21 10° WNW 16:23:46 50° NW 16:23:46 50° NW
NOSS 3-3 (A) 4.3 16:18:39 10° WNW 16:25:38 90° NNE 16:27:07 62° ESE
NOSS 3-3 (C) 4.3 16:18:45 10° WNW 16:25:43 90° NNE 16:27:13 62° ESE
Cosmos 1000 Rocket 4.3 16:19:57 10° NNW 16:26:09 83° ENE 16:26:49 72° SE
Meteor 1-27 4.2 16:21:16 10° NNW 16:26:53 76° WSW 16:27:59 57° S
Cosmos 1190 Rocket 4.4 16:23:44 10° NNW 16:27:55 53° N 16:27:55 53° N
Cosmos 2082 Rocket 3.5 16:27:16 10° WNW 16:32:10 29° N 16:32:30 29° N
Cosmos 2366 rocket 3.9 16:26:28 10° SSW 16:32:42 86° WNW 16:39:03 10° NNE
Terra 4.3 16:36:29 12° N 16:36:29 12° N 16:36:57 10° N
SeaSat 1 3.8 16:34:37 29° N 16:34:37 29° N 16:37:49 10° NW
ADEOS Rocket 3.0 16:33:00 50° NNE 16:34:51 83° ESE 16:41:44 10° SSW
Cosmos 967 Rocket 4.4 16:28:34 10° WNW 16:35:06 77° NNE 16:35:16 76° NE
Cosmos 407 Rocket 3.9 16:31:11 10° NNW 16:35:29 57° NNW 16:35:29 57° NNW
COSMO-SKYMED 1 4.1 16:37:17 27° NNW 16:38:44 33° WNW 16:42:38 10° WSW
Cosmos 839 Rocket 4.4 16:35:04 10° W 16:41:10 56° N 16:41:48 54° NNE
USA 267 3.3 16:51:18 66° S 16:51:18 66° S 16:57:50 10° W
SL-16 R/B 3.8 16:50:18 10° NW 16:55:14 31° WSW 16:57:53 21° SSW
Timation 2 Rocket 4.2 16:49:52 10° WSW 16:56:03 64° NW 16:56:40 61° N
Resurs 01 Rocket 3.9 17:00:29 18° NNW 17:00:29 18° NNW 17:01:41 10° NNW
H-2A R/B 3.1 17:06:03 41° W 17:06:07 41° W 17:10:57 10° NNW
Cosmos 2219 4.1 17:01:17 10° SW 17:04:54 41° SW 17:04:54 41° SW
Cosmos 1603 4.3 17:02:00 10° NW 17:06:47 54° W 17:06:47 54° W
ATLAS 5 CENTAUR R/B 3.2 17:04:44 10° W 17:07:33 36° WNW 17:07:33 36° WNW
ATLAS CENTAUR R/B 4.0 17:13:59 10° WNW 17:15:33 17° W 17:15:33 17° W
CZ-2C R/B 4.1 17:17:28 45° W 17:17:28 45° W 17:22:43 10° NNW
Cosmos 2297 Rocket 3.9 17:18:19 10° SW 17:20:27 24° SW 17:20:27 24° SW
SJ 16-02 4.1 17:26:57 10° NW 17:28:40 14° NNW 17:28:40 14° NNW
Cosmos 2227 Rocket 4.2 17:30:18 10° SW 17:31:48 19° SW 17:31:48 19° SW
Cosmos 2082 Rocket 4.3 18:12:19 10° NW 18:14:21 21° NNW 18:14:21 21° NNW
ADEOS Rocket 4.4 18:14:38 10° NNE 18:20:02 35° NW 18:25:55 10° WSW
CENTAUR R/B 4.3 23:08:41 33° ENE 23:08:41 33° ENE 23:12:56 10° E
Cosmos 1943 Rocket 4.3 23:44:52 21° NE 23:44:52 21° NE 23:46:41 10° NE
